Moose Lake, MN

1:37 AM CDT on October 18, 2017 (GMT -0500)
Moose Lake-Carlton County

Weather History for KMZH - January, 2013

Change the Weather History Date:

Wednesday, January 23, 2013

  Actual Average Record
Temperature  
Mean Temperature -2 °F -  
Max Temperature 10 °F 22 °F 42 °F (2015)
Min Temperature -13 °F 0 °F -32 °F (1963)
Degree Days  
Heating Degree Days 66    
Moisture  
Dew Point -17 °F    
Average Humidity 51    
Maximum Humidity 72    
Minimum Humidity 28    
Precipitation  
Precipitation 0.00 in - - ()
Sea Level Pressure  
Sea Level Pressure 30.23 in    
Wind  
Wind Speed 5 mph (NW)    
Max Wind Speed 21 mph    
Max Gust Speed 29 mph    
Visibility 8 miles    
Events Snow    
Averages and records for this station are not official NWS values.
T = Trace of Precipitation, MM = Missing Value Source: NWS Daily Summary

Daily Weather History Graph

Daily Weather History Graph

Search for Another Location

Airport or City:

Trip Planner

Search our weather history database for the weather conditions in past years. The results will help you decide how hot, cold, wet, or windy it might be!

Date:

Astronomy

Jan. 23, 2013 Rise Set
Actual Time 7:44 AM CST 5:02 PM CST
Civil Twilight 7:11 AM CST 5:35 PM CST
Nautical Twilight 6:34 AM CST 6:12 PM CST
Astronomical Twilight 5:58 AM CST 6:48 PM CST
Moon 2:10 PM CST (1/23) 4:58 AM CST (1/23)
Length of Visible Light 10h 24m
Length of Day
9h 18m
Waxing Gibbous, 89% of the Moon is Illuminated
Jan 23
Waxing Gibbous
Jan 26
Full
Feb 3
Last Quarter
Feb 10
New
Feb 17
First Quarter

Hourly Weather History & Observations

Time (CST) Temp. Windchill Dew Point Humidity Pressure Visibility Wind Dir Wind Speed Gust Speed Precip Events Conditions
12:11 AM -7.6 °F -16.5 °F -16.6 °F 65% 30.15 in 10.0 mi WSW 3.5 mph - N/A   Overcast
12:31 AM -7.6 °F -16.5 °F -16.6 °F 65% 30.14 in 10.0 mi SW 3.5 mph - N/A   Overcast
12:52 AM -5.8 °F -14.5 °F -14.8 °F 65% 30.13 in 10.0 mi SW 3.5 mph - N/A   Overcast
1:12 AM -4.0 °F -12.4 °F -14.8 °F 60% 30.13 in 10.0 mi SSW 3.5 mph - N/A   Overcast
1:32 AM -4.0 °F - -14.8 °F 60% 30.13 in 10.0 mi Calm Calm - N/A   Overcast
1:52 AM -4.0 °F -12.4 °F -13.0 °F 65% 30.13 in 10.0 mi SW 3.5 mph - N/A   Overcast
2:11 AM -4.0 °F - -13.0 °F 65% 30.13 in 10.0 mi Calm Calm - N/A   Overcast
2:31 AM -4.0 °F - -13.0 °F 65% 30.12 in 7.0 mi Calm Calm - N/A   Overcast
2:51 AM -4.0 °F - -13.0 °F 65% 30.12 in 5.0 mi Calm Calm - N/A   Haze
3:11 AM -4.0 °F - -13.0 °F 65% 30.11 in 10.0 mi Calm Calm - N/A   Overcast
3:31 AM -4.0 °F - -13.0 °F 65% 30.11 in 10.0 mi Calm Calm - N/A   Overcast
3:51 AM -4.0 °F - -13.0 °F 65% 30.11 in 10.0 mi Calm Calm - N/A   Overcast
4:11 AM -4.0 °F - -13.0 °F 65% 30.10 in 7.0 mi Calm Calm - N/A   Overcast
4:31 AM -4.0 °F - -13.0 °F 65% 30.10 in 5.0 mi Calm Calm - N/A Snow Light Snow
4:51 AM -2.2 °F - -11.2 °F 66% 30.10 in 5.0 mi Calm Calm - N/A Snow Light Snow
5:11 AM -2.2 °F - -11.2 °F 66% 30.09 in 5.0 mi Calm Calm - N/A Snow Light Snow
5:31 AM -2.2 °F - -9.4 °F 71% 30.09 in 5.0 mi Calm Calm - N/A   Haze
5:51 AM -0.4 °F -8.3 °F -9.4 °F 66% 30.08 in 5.0 mi SSW 3.5 mph - N/A Snow Light Snow
6:11 AM -0.4 °F -8.3 °F -9.4 °F 66% 30.07 in 7.0 mi SW 3.5 mph - N/A   Overcast
6:31 AM -0.4 °F - -9.4 °F 66% 30.08 in 7.0 mi Calm Calm - N/A   Overcast
6:51 AM -0.4 °F - -9.4 °F 66% 30.07 in 5.0 mi Calm Calm - N/A Snow Light Snow
7:12 AM -0.4 °F -8.3 °F -7.6 °F 72% 30.06 in 4.0 mi SW 3.5 mph - N/A Snow Light Snow
7:31 AM -0.4 °F -8.3 °F -7.6 °F 72% 30.06 in 3.0 mi SW 3.5 mph - N/A Snow Light Snow
7:51 AM -0.4 °F - -7.6 °F 72% 30.06 in 3.0 mi Calm Calm - N/A Snow Light Snow
8:11 AM -0.4 °F - -7.6 °F 72% 30.06 in 1.8 mi Calm Calm - N/A Snow Light Snow
8:31 AM 1.4 °F - -7.6 °F 66% 30.06 in 2.5 mi Calm Calm - N/A Snow Light Snow
8:51 AM 1.4 °F - -7.6 °F 66% 30.07 in 1.2 mi Calm Calm - N/A Snow Light Snow
9:12 AM 3.2 °F -4.2 °F -5.8 °F 66% 30.07 in 0.8 mi SW 3.5 mph - N/A Snow Light Snow
9:31 AM 5.0 °F -5.6 °F -4.0 °F 66% 30.07 in 1.8 mi West 5.8 mph - N/A Snow Light Snow
9:51 AM 8.6 °F -6.3 °F -4.0 °F 57% 30.07 in 7.0 mi WNW 11.5 mph - N/A   Overcast
10:11 AM 8.6 °F -9.5 °F -5.8 °F 52% 30.08 in 10.0 mi WNW 17.3 mph 23.0 mph N/A   Overcast
10:31 AM 10.4 °F -4.8 °F -5.8 °F 48% 30.08 in 10.0 mi NW 12.7 mph 20.7 mph N/A   Scattered Clouds
10:51 AM 10.4 °F -5.4 °F -7.6 °F 44% 30.10 in 7.0 mi NW 13.8 mph 21.9 mph N/A   Scattered Clouds
11:15 AM 5.0 °F -9.1 °F -11.2 °F 47% 30.02 in 10.0 mi NW 9.2 mph 19.6 mph N/A   Clear
11:35 AM 8.6 °F -9.5 °F -9.4 °F 44% 30.10 in 7.0 mi NW 17.3 mph 23.0 mph N/A   Overcast
11:51 AM 8.6 °F -8.9 °F -13.0 °F 37% 30.11 in 10.0 mi NW 16.1 mph 24.2 mph N/A   Overcast
12:14 PM 8.6 °F -8.9 °F -13.0 °F 37% 30.11 in 10.0 mi WNW 16.1 mph 23.0 mph N/A   Overcast
12:36 PM 8.6 °F -8.9 °F -14.8 °F 34% 30.12 in 10.0 mi NW 16.1 mph 24.2 mph N/A   Mostly Cloudy
12:52 PM 5.0 °F -11.6 °F -14.8 °F 40% 30.13 in 10.0 mi NNW 12.7 mph 21.9 mph N/A   Mostly Cloudy
1:11 PM 5.0 °F -15.7 °F -16.6 °F 36% 30.15 in 10.0 mi NNW 20.7 mph 25.3 mph N/A   Scattered Clouds
1:52 PM 3.2 °F -17.1 °F -20.2 °F 33% 30.18 in 10.0 mi NNW 18.4 mph 27.6 mph N/A   Scattered Clouds
2:12 PM 5.0 °F -15.7 °F -22.0 °F 28% 30.20 in 10.0 mi NW 20.7 mph 28.8 mph N/A   Mostly Cloudy
2:31 PM 3.2 °F -15.3 °F -22.0 °F 30% 30.21 in 10.0 mi NW 15.0 mph 26.5 mph N/A   Overcast
2:51 PM 3.2 °F -13.9 °F -20.2 °F 33% 30.24 in 10.0 mi NNW 12.7 mph 23.0 mph N/A   Overcast
3:11 PM 1.4 °F -18.8 °F -22.0 °F 33% 30.27 in 10.0 mi NW 17.3 mph 24.2 mph N/A   Mostly Cloudy
3:31 PM 1.4 °F -16.9 °F -23.8 °F 30% 30.28 in 10.0 mi North 13.8 mph 20.7 mph N/A   Mostly Cloudy
3:51 PM -0.4 °F -18.4 °F -23.8 °F 32% 30.30 in 10.0 mi North 12.7 mph 20.7 mph N/A   Scattered Clouds
4:11 PM -0.4 °F -16.7 °F -23.8 °F 32% 30.31 in 10.0 mi NNW 10.4 mph 23.0 mph N/A   Scattered Clouds
4:31 PM -0.4 °F -17.6 °F -23.8 °F 32% 30.34 in 10.0 mi North 11.5 mph - N/A   Scattered Clouds
4:52 PM -2.2 °F -22.2 °F -23.8 °F 35% 30.36 in 10.0 mi North 15.0 mph 20.7 mph N/A   Clear
5:11 PM -4.0 °F -23.0 °F -25.6 °F 35% 30.37 in 10.0 mi North 12.7 mph 19.6 mph N/A   Clear
5:31 PM -4.0 °F -23.0 °F -23.8 °F 38% 30.39 in 10.0 mi NNW 12.7 mph - N/A   Clear
5:51 PM -4.0 °F -22.1 °F -23.8 °F 38% 30.40 in 10.0 mi NNW 11.5 mph 18.4 mph N/A   Clear
6:11 PM -4.0 °F -22.1 °F -23.8 °F 38% 30.42 in 10.0 mi NNW 11.5 mph 18.4 mph N/A   Clear
6:32 PM -5.8 °F -19.9 °F -23.8 °F 42% 30.44 in 10.0 mi NNW 6.9 mph - N/A   Clear
6:52 PM -5.8 °F -21.2 °F -23.8 °F 42% 30.45 in 10.0 mi North 8.1 mph 17.3 mph N/A   Clear
7:11 PM -5.8 °F -23.4 °F -25.6 °F 38% 30.45 in 10.0 mi North 10.4 mph - N/A   Clear
7:32 PM -7.6 °F -26.6 °F -23.8 °F 45% 30.46 in 10.0 mi North 11.5 mph 16.1 mph N/A   Scattered Clouds
7:51 PM -7.6 °F -26.6 °F -23.8 °F 45% 30.45 in 10.0 mi North 11.5 mph 16.1 mph N/A   Scattered Clouds
8:11 PM -7.6 °F -26.6 °F -25.6 °F 41% 30.47 in 10.0 mi North 11.5 mph - N/A   Scattered Clouds
8:31 PM -7.6 °F -24.6 °F -25.6 °F 41% 30.48 in 10.0 mi North 9.2 mph - N/A   Clear
8:51 PM -7.6 °F -22.1 °F -25.6 °F 41% 30.50 in 10.0 mi NNW 6.9 mph - N/A   Clear
9:11 PM -7.6 °F -20.6 °F -25.6 °F 41% 30.51 in 10.0 mi NNW 5.8 mph - N/A   Scattered Clouds
9:32 PM -9.4 °F -22.7 °F -25.6 °F 45% 30.52 in 10.0 mi North 5.8 mph - N/A   Scattered Clouds
9:51 PM -9.4 °F -18.6 °F -25.6 °F 45% 30.53 in 10.0 mi North 3.5 mph - N/A   Scattered Clouds
10:11 PM -9.4 °F -18.6 °F -25.6 °F 45% 30.53 in 10.0 mi NNW 3.5 mph - N/A   Clear
10:32 PM -11.2 °F - -25.6 °F 49% 30.55 in 10.0 mi Calm Calm - N/A   Scattered Clouds
10:51 PM -11.2 °F -23.0 °F -25.6 °F 49% 30.55 in 10.0 mi North 4.6 mph - N/A   Scattered Clouds
11:11 PM -13.0 °F -25.1 °F -25.6 °F 53% 30.55 in 10.0 mi North 4.6 mph - N/A   Clear
11:52 PM -13.0 °F -28.6 °F -25.6 °F 53% 30.58 in 10.0 mi NNW 6.9 mph - N/A   Clear